Location: ???????
(55.2903°N, 39.1554°E)
Time: 17:48:05
(UTC+00:00)

Meteor 1-19 Rocket - Pass Details

Date: 14 April 2024
Orbit: 805 x 929 km, 81.2° (Epoch: 23 May)

Event Time Altitude Azimuth Distance (km) Brightness Sun altitude
Exits shadow 00:48:12 - 194° (SSW) 2,656 6.3 -12.5°
Reaches altitude 10° 00:48:25 10° 194° (SSW) 2,576 6.3 -12.5°
Maximum altitude 00:54:20 86° 283° (WNW) 928 4.4 -11.8°
Drops below altitude 10° 01:00:25 10° 14° (NNE) 2,644 7.6 -11.1°
Sets 01:02:56 0° 15° (NNE) 3,595 8.3 -10.8°
